Oconto, WI

2:21 PM CDT on July 22, 2017 (GMT -0500)
Oconto Municipal

Weather History for KOCQ - March, 2014

Change the Weather History Date:

Wednesday, March 19, 2014

  Actual Average Record
Temperature  
Mean Temperature 32 °F -  
Max Temperature 35 °F 39 °F 41 °F (2017)
Min Temperature 30 °F 20 °F 16 °F (2013)
Degree Days  
Heating Degree Days 32    
Moisture  
Dew Point 29 °F    
Average Humidity 88    
Maximum Humidity 98    
Minimum Humidity 74    
Precipitation  
Precipitation 0.07 in - - ()
Sea Level Pressure  
Sea Level Pressure 29.71 in    
Wind  
Wind Speed 7 mph (North)    
Max Wind Speed 12 mph    
Max Gust Speed 17 mph    
Visibility 6 miles    
Events      
Averages and records for this station are not official NWS values.
T = Trace of Precipitation, MM = Missing Value Source: NWS Daily Summary

Daily Weather History Graph

Daily Weather History Graph

Search for Another Location

Airport or City:

Trip Planner

Search our weather history database for the weather conditions in past years. The results will help you decide how hot, cold, wet, or windy it might be!

Date:

Astronomy

Mar. 19, 2014 Rise Set
Actual Time 6:56 AM CDT 7:02 PM CDT
Civil Twilight 6:27 AM CDT 7:32 PM CDT
Nautical Twilight 5:53 AM CDT 8:06 PM CDT
Astronomical Twilight 5:18 AM CDT 8:41 PM CDT
Moon 10:30 PM CDT (3/19) 8:14 AM CDT (3/19)
Length of Visible Light 13h 04m
Length of Day
12h 06m
Waning Gibbous, 91% of the Moon is Illuminated
Mar 19
Waning Gibbous
Mar 23
Last Quarter
Mar 30
New
Apr 7
First Quarter
Apr 15
Full

Hourly Weather History & Observations

Time (CDT) Temp. Windchill Dew Point Humidity Pressure Visibility Wind Dir Wind Speed Gust Speed Precip Events Conditions
12:15 AM 32.4 °F 26.0 °F 28.4 °F 85% 29.82 in 10.0 mi ENE 6.9 mph - N/A   Overcast
12:35 AM 32.5 °F 24.8 °F 28.4 °F 85% 29.80 in 10.0 mi NE 9.2 mph - N/A   Overcast
12:55 AM 32.4 °F 26.0 °F 28.9 °F 87% 29.79 in 5.0 mi NE 6.9 mph - N/A   Overcast
1:15 AM 32.0 °F 27.5 °F 30.0 °F 92% 29.78 in 2.5 mi NE 4.6 mph - N/A   Overcast
1:35 AM 32.0 °F 26.4 °F 30.6 °F 94% 29.76 in 1.5 mi NE 5.8 mph - N/A   Overcast
1:55 AM 32.0 °F 25.6 °F 30.7 °F 95% 29.75 in 4.0 mi NE 6.9 mph - N/A   Overcast
2:15 AM 32.0 °F 26.4 °F 30.7 °F 95% 29.74 in 4.0 mi NE 5.8 mph - N/A   Overcast
2:35 AM 32.0 °F 25.6 °F 30.9 °F 96% 29.73 in 4.0 mi NE 6.9 mph - N/A   Overcast
2:55 AM 32.0 °F 26.4 °F 30.9 °F 96% 29.72 in 4.0 mi NE 5.8 mph - 0.01 in   Overcast
3:15 AM 32.0 °F 25.6 °F 30.7 °F 95% 29.71 in 3.0 mi NE 6.9 mph - N/A   Overcast
3:35 AM 31.8 °F 25.4 °F 30.7 °F 96% 29.69 in 3.0 mi NE 6.9 mph - 0.01 in   Overcast
3:55 AM 31.6 °F 25.1 °F 30.7 °F 96% 29.69 in 2.0 mi NNE 6.9 mph - 0.01 in   Overcast
4:15 AM 31.5 °F 24.2 °F 30.7 °F 97% 29.68 in 1.5 mi NNE 8.1 mph - 0.01 in   Overcast
4:35 AM 31.1 °F 23.1 °F 30.2 °F 96% 29.67 in 1.2 mi NNE 9.2 mph - 0.02 in   Overcast
4:55 AM 31.1 °F 23.7 °F 30.6 °F 98% 29.66 in 1.2 mi NE 8.1 mph - 0.03 in   Overcast
5:15 AM 30.9 °F 23.5 °F 30.2 °F 97% 29.66 in 1.0 mi NNE 8.1 mph - 0.01 in   Overcast
5:30 AM 30.9 °F 24.3 °F 30.2 °F 97% 29.66 in 1.5 mi NE 6.9 mph - 0.01 in   Overcast
5:50 AM 30.9 °F 23.5 °F 30.0 °F 96% 29.65 in 2.5 mi NNE 8.1 mph - 0.01 in   Overcast
6:15 AM 30.7 °F 23.3 °F 29.8 °F 96% 29.65 in 3.0 mi NNE 8.1 mph - N/A   Overcast
6:35 AM 30.7 °F 24.1 °F 29.7 °F 96% 29.64 in 2.5 mi NE 6.9 mph - N/A   Overcast
6:55 AM 30.7 °F 26.0 °F 29.7 °F 96% 29.64 in 2.5 mi NE 4.6 mph - N/A   Overcast
7:15 AM 30.6 °F 23.8 °F 29.5 °F 96% 29.64 in 1.5 mi NE 6.9 mph - 0.01 in   Overcast
7:35 AM 30.6 °F 24.7 °F 29.5 °F 96% 29.63 in 2.0 mi NNE 5.8 mph - 0.01 in   Overcast
7:55 AM 30.2 °F 23.4 °F 29.1 °F 96% 29.63 in 4.0 mi North 6.9 mph - 0.01 in   Overcast
8:15 AM 30.0 °F 22.4 °F 28.4 °F 94% 29.63 in 5.0 mi NNE 8.1 mph - N/A   Overcast
8:35 AM 30.0 °F 24.1 °F 28.4 °F 94% 29.63 in 5.0 mi North 5.8 mph - N/A   Overcast
8:55 AM 30.0 °F 22.4 °F 28.2 °F 93% 29.63 in 5.0 mi North 8.1 mph - N/A   Overcast
9:15 AM 30.0 °F 24.1 °F 27.9 °F 92% 29.64 in 5.0 mi North 5.8 mph - N/A   Overcast
9:35 AM 30.2 °F 24.3 °F 28.0 °F 92% 29.64 in 7.0 mi North 5.8 mph - N/A   Overcast
9:55 AM 30.7 °F 23.3 °F 28.4 °F 91% 29.64 in 5.0 mi North 8.1 mph - N/A   Overcast
10:15 AM 30.9 °F 24.3 °F 28.2 °F 90% 29.64 in 5.0 mi North 6.9 mph - N/A   Overcast
10:35 AM 31.6 °F 23.7 °F 28.0 °F 87% 29.64 in 7.0 mi North 9.2 mph - N/A   Overcast
10:55 AM 31.8 °F 23.3 °F 27.5 °F 84% 29.64 in 10.0 mi North 10.4 mph 17.3 mph N/A   Overcast
11:15 AM 32.0 °F 24.2 °F 28.0 °F 85% 29.64 in 10.0 mi NNW 9.2 mph - N/A   Overcast
11:35 AM 32.0 °F 24.2 °F 27.9 °F 85% 29.64 in 10.0 mi North 9.2 mph - N/A   Overcast
11:55 AM 31.8 °F 23.9 °F 27.5 °F 84% 29.65 in 10.0 mi North 9.2 mph - N/A   Overcast
12:15 PM 32.0 °F 24.8 °F 27.5 °F 83% 29.65 in 10.0 mi NNW 8.1 mph - N/A   Overcast
12:35 PM 32.0 °F 24.8 °F 27.9 °F 85% 29.65 in 10.0 mi NNW 8.1 mph - N/A   Overcast
12:55 PM 32.2 °F 24.4 °F 27.7 °F 83% 29.65 in 10.0 mi NNW 9.2 mph - N/A   Overcast
1:15 PM 32.7 °F 25.7 °F 27.9 °F 82% 29.65 in 10.0 mi NNW 8.1 mph - N/A   Overcast
1:35 PM 33.3 °F 27.1 °F 27.9 °F 81% 29.66 in 10.0 mi NNW 6.9 mph - N/A   Overcast
1:55 PM 33.3 °F 28.9 °F 28.4 °F 82% 29.66 in 10.0 mi NNW 4.6 mph - N/A   Overcast
2:15 PM 34.0 °F 28.8 °F 28.8 °F 81% 29.65 in 10.0 mi NNW 5.8 mph - N/A   Overcast
2:35 PM 33.8 °F 30.8 °F 29.3 °F 84% 29.66 in 10.0 mi WNW 3.5 mph - N/A   Overcast
2:55 PM 34.2 °F - 30.0 °F 85% 29.66 in 4.0 mi Calm Calm - N/A   Overcast
3:15 PM 33.8 °F - 30.7 °F 89% 29.66 in 5.0 mi Calm Calm - N/A   Overcast
3:35 PM 34.9 °F - 31.3 °F 87% 29.66 in 7.0 mi Calm Calm - N/A   Overcast
3:55 PM 34.7 °F - 31.5 °F 88% 29.67 in 7.0 mi Calm Calm - N/A   Overcast
4:15 PM 34.9 °F - 31.8 °F 89% 29.68 in 10.0 mi Calm Calm - N/A   Overcast
4:35 PM 35.1 °F - 31.8 °F 88% 29.68 in 10.0 mi Calm Calm - N/A   Overcast
4:55 PM 34.9 °F - 32.0 °F 89% 29.69 in 10.0 mi Calm Calm - N/A   Overcast
5:15 PM 35.4 °F - 32.0 °F 87% 29.70 in 7.0 mi Calm Calm - N/A   Overcast
5:35 PM 34.3 °F - 32.0 °F 91% 29.71 in 7.0 mi Calm Calm - N/A   Overcast
5:55 PM 34.3 °F - 32.0 °F 91% 29.71 in 7.0 mi Calm Calm - N/A   Overcast
6:15 PM 35.8 °F 29.4 °F 32.2 °F 87% 29.73 in 10.0 mi WNW 8.1 mph - N/A   Overcast
6:35 PM 35.6 °F 29.9 °F 32.0 °F 87% 29.74 in 10.0 mi NW 6.9 mph - N/A   Overcast
6:55 PM 34.7 °F 28.1 °F 32.0 °F 90% 29.75 in 5.0 mi WNW 8.1 mph - N/A   Overcast
7:15 PM 33.3 °F 26.4 °F 31.8 °F 94% 29.76 in 4.0 mi WNW 8.1 mph - N/A   Overcast
7:35 PM 32.5 °F 24.8 °F 31.5 °F 96% 29.78 in 4.0 mi WNW 9.2 mph - N/A   Overcast
7:55 PM 32.0 °F 23.6 °F 30.4 °F 94% 29.79 in 3.0 mi NW 10.4 mph 16.1 mph N/A   Overcast
8:15 PM 32.0 °F 24.2 °F 29.1 °F 89% 29.79 in 7.0 mi WNW 9.2 mph - N/A   Overcast
8:35 PM 32.0 °F 24.2 °F 29.1 °F 89% 29.80 in 7.0 mi WNW 9.2 mph - N/A   Overcast
8:55 PM 31.8 °F 23.9 °F 26.2 °F 80% 29.80 in 10.0 mi WNW 9.2 mph 16.1 mph N/A   Overcast
9:15 PM 31.8 °F 24.6 °F 25.3 °F 77% 29.81 in 10.0 mi WNW 8.1 mph 16.1 mph N/A   Overcast
9:35 PM 31.6 °F 23.7 °F 24.8 °F 76% 29.81 in 10.0 mi WNW 9.2 mph 16.1 mph N/A   Overcast
9:55 PM 31.8 °F 23.3 °F 24.8 °F 75% 29.82 in 10.0 mi WNW 10.4 mph 16.1 mph N/A   Overcast
10:15 PM 31.6 °F 22.6 °F 25.0 °F 76% 29.83 in 10.0 mi WNW 11.5 mph - N/A   Overcast
10:35 PM 31.6 °F 24.4 °F 24.8 °F 76% 29.83 in 10.0 mi NW 8.1 mph - N/A   Overcast
10:55 PM 31.6 °F 25.1 °F 24.3 °F 74% 29.84 in 10.0 mi WNW 6.9 mph - N/A   Overcast
11:10 PM 31.6 °F 23.7 °F 24.1 °F 74% 29.84 in 10.0 mi WNW 9.2 mph - N/A   Overcast
11:35 PM 30.9 °F 24.3 °F 23.5 °F 74% 29.84 in 10.0 mi WNW 6.9 mph - N/A   Mostly Cloudy
11:55 PM 30.6 °F 23.1 °F 23.9 °F 76% 29.84 in 10.0 mi WNW 8.1 mph - N/A   Clear